Jackson, MN

8:01 AM CDT on September 19, 2017 (GMT -0500)
Jackson Municipal

Weather History for KMJQ - April, 2013

Change the Weather History Date:

Saturday, April 20, 2013

  Actual Average Record
Temperature  
Mean Temperature 29 °F -  
Max Temperature 39 °F 57 °F 78 °F (2014)
Min Temperature 19 °F 35 °F 19 °F (2013)
Degree Days  
Heating Degree Days 36    
Moisture  
Dew Point 22 °F    
Average Humidity 71    
Maximum Humidity 86    
Minimum Humidity 52    
Precipitation  
Precipitation 0.00 in - - ()
Sea Level Pressure  
Sea Level Pressure 30.20 in    
Wind  
Wind Speed 9 mph (East)    
Max Wind Speed 14 mph    
Max Gust Speed -    
Visibility 10 miles    
Events      
Averages and records for this station are not official NWS values.
T = Trace of Precipitation, MM = Missing Value Source: NWS Daily Summary

Daily Weather History Graph

Daily Weather History Graph

Search for Another Location

Airport or City:

Trip Planner

Search our weather history database for the weather conditions in past years. The results will help you decide how hot, cold, wet, or windy it might be!

Date:

Astronomy

Apr. 20, 2013 Rise Set
Actual Time 6:28 AM CDT 8:09 PM CDT
Civil Twilight 5:58 AM CDT 8:40 PM CDT
Nautical Twilight 5:21 AM CDT 9:17 PM CDT
Astronomical Twilight 4:41 AM CDT 9:57 PM CDT
Moon 2:45 PM CDT (4/20) 3:28 AM CDT (4/20)
Length of Visible Light 14h 41m
Length of Day
13h 41m
Waxing Gibbous, 71% of the Moon is Illuminated
Apr 20
Waxing Gibbous
Apr 25
Full
May 2
Last Quarter
May 9
New
May 17
First Quarter

Hourly Weather History & Observations

Time (CDT) Temp. Windchill Dew Point Humidity Pressure Visibility Wind Dir Wind Speed Gust Speed Precip Events Conditions
2:57 AM 23.0 °F 11.1 °F 17.6 °F 80% 30.09 in 10.0 mi NW 12.7 mph - N/A   Clear
3:12 AM 23.0 °F 11.7 °F 17.6 °F 80% 30.09 in 10.0 mi NW 11.5 mph - N/A   Clear
3:33 AM 23.0 °F 12.4 °F 17.6 °F 80% 30.09 in 10.0 mi NW 10.4 mph - N/A   Clear
3:52 AM 23.0 °F 12.4 °F 17.6 °F 80% 30.10 in 10.0 mi NW 10.4 mph - N/A   Clear
4:12 AM 23.0 °F 13.1 °F 17.6 °F 80% 30.10 in 10.0 mi WNW 9.2 mph - N/A   Clear
4:33 AM 21.2 °F 10.9 °F 17.6 °F 86% 30.11 in 10.0 mi NW 9.2 mph - N/A   Clear
4:52 AM 23.0 °F 12.4 °F 17.6 °F 80% 30.11 in 10.0 mi NW 10.4 mph - N/A   Clear
5:12 AM 21.2 °F 11.7 °F 17.6 °F 86% 30.12 in 10.0 mi WNW 8.1 mph - N/A   Clear
5:33 AM 21.2 °F 11.7 °F 15.8 °F 80% 30.13 in 10.0 mi WNW 8.1 mph - N/A   Clear
5:52 AM 21.2 °F 11.7 °F 15.8 °F 80% 30.13 in 10.0 mi NW 8.1 mph - N/A   Clear
6:12 AM 19.4 °F 9.5 °F 15.8 °F 86% 30.14 in 10.0 mi NW 8.1 mph - N/A   Clear
6:32 AM 19.4 °F 9.5 °F 14.0 °F 80% 30.15 in 10.0 mi NW 8.1 mph - N/A   Clear
6:52 AM 19.4 °F 11.5 °F 15.8 °F 86% 30.16 in 10.0 mi NW 5.8 mph - N/A   Clear
7:13 AM 21.2 °F 12.6 °F 15.8 °F 80% 30.16 in 10.0 mi NNW 6.9 mph - N/A   Clear
7:32 AM 21.2 °F 11.7 °F 17.6 °F 86% 30.17 in 10.0 mi NNW 8.1 mph - N/A   Clear
7:52 AM 23.0 °F 15.8 °F 17.6 °F 80% 30.19 in 10.0 mi NNW 5.8 mph - N/A   Clear
8:12 AM 23.0 °F 15.8 °F 17.6 °F 80% 30.20 in 10.0 mi NNW 5.8 mph - N/A   Clear
8:32 AM 24.8 °F 17.9 °F 19.4 °F 80% 30.20 in 10.0 mi NNW 5.8 mph - N/A   Clear
8:52 AM 24.8 °F 17.9 °F 19.4 °F 80% 30.21 in 10.0 mi NNW 5.8 mph - N/A   Clear
9:13 AM 26.6 °F 21.2 °F 19.4 °F 74% 30.21 in 10.0 mi NNW 4.6 mph - N/A   Clear
9:32 AM 26.6 °F 22.6 °F 19.4 °F 74% 30.22 in 10.0 mi North 3.5 mph - N/A   Clear
9:52 AM 26.6 °F 20.0 °F 19.4 °F 74% 30.22 in 10.0 mi NNE 5.8 mph - N/A   Clear
10:13 AM 28.4 °F 24.6 °F 21.2 °F 74% 30.22 in 10.0 mi NNE 3.5 mph - N/A   Clear
10:32 AM 28.4 °F 23.3 °F 21.2 °F 74% 30.23 in 10.0 mi NE 4.6 mph - N/A   Clear
10:52 AM 28.4 °F 23.3 °F 21.2 °F 74% 30.24 in 10.0 mi NE 4.6 mph - N/A   Clear
11:13 AM 30.2 °F 25.4 °F 21.2 °F 69% 30.24 in 10.0 mi ENE 4.6 mph - N/A   Clear
11:32 AM 30.2 °F 25.4 °F 21.2 °F 69% 30.25 in 10.0 mi East 4.6 mph - N/A   Clear
11:52 AM 30.2 °F 25.4 °F 21.2 °F 69% 30.25 in 10.0 mi East 4.6 mph - N/A   Clear
12:13 PM 32.0 °F 26.4 °F 23.0 °F 69% 30.25 in 10.0 mi East 5.8 mph - N/A   Clear
12:32 PM 32.0 °F 25.6 °F 21.2 °F 64% 30.25 in 10.0 mi ESE 6.9 mph - N/A   Clear
12:52 PM 32.0 °F 26.4 °F 21.2 °F 64% 30.25 in 10.0 mi ESE 5.8 mph - N/A   Clear
1:13 PM 33.8 °F 27.0 °F 21.2 °F 60% 30.25 in 10.0 mi SE 8.1 mph - N/A   Clear
1:32 PM 33.8 °F 27.7 °F 21.2 °F 60% 30.24 in 10.0 mi SE 6.9 mph - N/A   Clear
1:52 PM 35.6 °F 29.2 °F 23.0 °F 60% 30.24 in 10.0 mi ESE 8.1 mph - N/A   Clear
2:13 PM 35.6 °F 29.2 °F 23.0 °F 60% 30.24 in 10.0 mi ESE 8.1 mph - N/A   Clear
2:32 PM 35.6 °F 28.6 °F 23.0 °F 60% 30.23 in 10.0 mi East 9.2 mph - N/A   Clear
2:52 PM 35.6 °F 28.0 °F 23.0 °F 60% 30.23 in 10.0 mi ESE 10.4 mph - N/A   Clear
3:13 PM 37.4 °F 31.4 °F 21.2 °F 52% 30.23 in 10.0 mi ESE 8.1 mph - N/A   Clear
3:32 PM 37.4 °F 30.8 °F 21.2 °F 52% 30.22 in 10.0 mi SE 9.2 mph - N/A   Clear
3:53 PM 37.4 °F 30.3 °F 21.2 °F 52% 30.22 in 10.0 mi ESE 10.4 mph - N/A   Clear
4:12 PM 39.2 °F 33.6 °F 23.0 °F 52% 30.22 in 10.0 mi SE 8.1 mph - N/A   Scattered Clouds
4:32 PM 37.4 °F 30.3 °F 23.0 °F 56% 30.21 in 10.0 mi SE 10.4 mph - N/A   Scattered Clouds
4:52 PM 37.4 °F 30.8 °F 23.0 °F 56% 30.21 in 10.0 mi ESE 9.2 mph - N/A   Mostly Cloudy
5:13 PM 37.4 °F 30.8 °F 26.6 °F 65% - 10.0 mi ESE 9.2 mph - N/A   Overcast
5:32 PM 37.4 °F 30.8 °F 26.6 °F 65% 30.19 in 10.0 mi ESE 9.2 mph - N/A   Overcast
5:52 PM 37.4 °F 30.8 °F 28.4 °F 70% 30.19 in 10.0 mi ESE 9.2 mph - N/A   Overcast
6:13 PM 39.2 °F 32.5 °F 28.4 °F 65% 30.19 in 10.0 mi ESE 10.4 mph - N/A   Overcast
6:32 PM 37.4 °F 30.8 °F 26.6 °F 65% 30.19 in 10.0 mi ESE 9.2 mph - N/A   Overcast
6:52 PM 37.4 °F 30.8 °F 28.4 °F 70% 30.18 in 10.0 mi ESE 9.2 mph - N/A   Overcast
7:13 PM 37.4 °F 31.4 °F 28.4 °F 70% 30.18 in 10.0 mi ESE 8.1 mph - N/A   Overcast
7:32 PM 37.4 °F 32.1 °F 30.2 °F 75% 30.19 in 10.0 mi ESE 6.9 mph - N/A   Overcast
7:52 PM 37.4 °F 32.8 °F 30.2 °F 75% 30.20 in 10.0 mi SE 5.8 mph - N/A   Overcast
8:13 PM 37.4 °F 28.9 °F 26.6 °F 65% 30.21 in 10.0 mi South 13.8 mph - N/A   Overcast
8:32 PM 37.4 °F 31.4 °F 26.6 °F 65% 30.21 in 10.0 mi SE 8.1 mph - N/A   Overcast
8:52 PM 37.4 °F 29.3 °F 26.6 °F 65% 30.21 in 10.0 mi SSE 12.7 mph - N/A   Overcast
9:13 PM 37.4 °F 30.8 °F 26.6 °F 65% 30.20 in 10.0 mi ESE 9.2 mph - N/A   Overcast
9:32 PM 37.4 °F 32.1 °F 26.6 °F 65% 30.22 in 10.0 mi SE 6.9 mph - N/A   Overcast
9:53 PM 35.6 °F 29.2 °F 28.4 °F 75% 30.21 in 10.0 mi ESE 8.1 mph - N/A   Overcast
10:12 PM 35.6 °F 29.9 °F 28.4 °F 75% 30.22 in 10.0 mi ESE 6.9 mph - N/A   Overcast
10:32 PM 35.6 °F 31.7 °F 30.2 °F 81% 30.22 in 10.0 mi ESE 4.6 mph - N/A   Overcast
10:53 PM 35.6 °F 30.7 °F 30.2 °F 81% 30.22 in 10.0 mi ESE 5.8 mph - N/A   Overcast
11:12 PM 35.6 °F 32.8 °F 28.4 °F 75% 30.24 in 10.0 mi SE 3.5 mph - N/A   Overcast
11:32 PM 37.4 °F 32.8 °F 28.4 °F 70% 30.24 in 10.0 mi SE 5.8 mph - N/A   Overcast
11:53 PM 35.6 °F 28.6 °F 30.2 °F 81% 30.21 in 10.0 mi ESE 9.2 mph - N/A   Overcast